| time (UTC) | temp F | wind direction | speed MPH | gust MPH | rain 1hr in | rain 24hr in | rain mn in | humidity % | barometer mb |
| 20260905002006 | 70 | 220 | 1.0 | 3.0 | 0.00 | 0.00 | 0.00 | 66 | 1013.5 |
| 20260905001004 | 71 | 235 | 0.0 | 3.0 | 0.00 | 0.00 | 0.00 | 65 | 1013.4 |
| 20260905000005 | 71 | 264 | 0.0 | 3.0 | 0.00 | 0.00 | 0.00 | 65 | 1013.4 |
| 20260904235003 | 71 | 300 | 0.0 | 3.0 | 0.00 | 0.00 | 0.00 | 64 | 1013.3 |
| 20260904234004 | 71 | 229 | 0.0 | 3.0 | 0.00 | 0.00 | 0.00 | 64 | 1013.4 |
| 20260904233004 | 71 | 244 | 0.0 | 2.0 | 0.00 | 0.00 | 0.00 | 63 | 1013.3 |
| 20260904232214 | 71 | 238 | 1.0 | 3.0 | 0.00 | 0.00 | 0.00 | 62 | 1013.2 |
| 20260904231216 | 72 | 297 | 0.0 | 3.0 | 0.00 | 0.00 | 0.00 | 60 | 1013.2 |
| 20260904230004 | 72 | 284 | 1.0 | 4.0 | 0.00 | 0.00 | 0.00 | 58 | 1013.2 |
| 20260904225003 | 73 | 340 | 1.0 | 5.0 | 0.00 | 0.00 | 0.00 | 57 | 1013.1 |
| 20260904224214 | 74 | 26 | 2.0 | 8.0 | 0.00 | 0.00 | 0.00 | 57 | 1013.1 |
| 20260904223005 | 75 | 20 | 2.0 | 8.0 | 0.00 | 0.00 | 0.00 | 56 | 1012.9 |
| 20260904222213 | 76 | 320 | 3.0 | 7.0 | 0.00 | 0.00 | 0.00 | 54 | 1012.9 |
| 20260904221005 | 76 | 39 | 1.0 | 6.0 | 0.00 | 0.00 | 0.00 | 53 | 1012.9 |
| 20260904220214 | 76 | 339 | 3.0 | 11.0 | 0.00 | 0.00 | 0.00 | 55 | 1013.0 |
| 20260904215003 | 76 | 326 | 3.0 | 11.0 | 0.00 | 0.00 | 0.00 | 56 | 1013.1 |
| 20260904214003 | 76 | 336 | 2.0 | 9.0 | 0.00 | 0.00 | 0.00 | 55 | 1013.0 |
| 20260904213003 | 76 | 335 | 3.0 | 8.0 | 0.00 | 0.00 | 0.00 | 55 | 1013.1 |
| 20260904212003 | 76 | 294 | 4.0 | 15.0 | 0.00 | 0.00 | 0.00 | 54 | 1013.0 |
| 20260904211003 | 76 | 323 | 4.0 | 11.0 | 0.00 | 0.00 | 0.00 | 54 | 1013.1 |
| 20260904210005 | 77 | 330 | 5.0 | 14.0 | 0.00 | 0.00 | 0.00 | 53 | 1013.1 |
| 20260904205004 | 77 | 336 | 4.0 | 11.0 | 0.00 | 0.00 | 0.00 | 53 | 1013.3 |
| 20260904204005 | 77 | 350 | 4.0 | 14.0 | 0.00 | 0.00 | 0.00 | 52 | 1013.2 |
| 20260904203215 | 77 | 359 | 3.0 | 11.0 | 0.00 | 0.00 | 0.00 | 54 | 1013.3 |
| 20260904202005 | 77 | 341 | 4.0 | 10.0 | 0.00 | 0.00 | 0.00 | 53 | 1013.5 |
| 20260904201004 | 77 | 274 | 7.0 | 10.0 | 0.00 | 0.00 | 0.00 | 52 | 1013.5 |
| 20260904200004 | 78 | 313 | 5.0 | 11.0 | 0.00 | 0.00 | 0.00 | 50 | 1013.5 |
| 20260904195005 | 77 | 279 | 5.0 | 13.0 | 0.00 | 0.00 | 0.00 | 53 | 1013.7 |
| 20260904194004 | 77 | 329 | 4.0 | 10.0 | 0.00 | 0.00 | 0.00 | 55 | 1013.7 |
| 20260904193004 | 78 | 331 | 5.0 | 12.0 | 0.00 | 0.00 | 0.00 | 54 | 1013.8 |
| 20260904192005 | 78 | 270 | 4.0 | 12.0 | 0.00 | 0.00 | 0.00 | 54 | 1013.8 |
| 20260904191004 | 76 | 301 | 5.0 | 12.0 | 0.00 | 0.00 | 0.00 | 57 | 1014.0 |
| 20260904190004 | 76 | 282 | 5.0 | 20.0 | 0.00 | 0.00 | 0.00 | 56 | 1013.9 |
| 20260904185003 | 76 | 294 | 4.0 | 13.0 | 0.00 | 0.00 | 0.00 | 57 | 1014.0 |
| 20260904184004 | 77 | 306 | 4.0 | 10.0 | 0.00 | 0.00 | 0.00 | 56 | 1014.1 |
| 20260904183004 | 77 | 302 | 5.0 | 14.0 | 0.00 | 0.00 | 0.00 | 57 | 1014.1 |
| 20260904182005 | 76 | 289 | 3.0 | 10.0 | 0.00 | 0.00 | 0.00 | 58 | 1014.2 |
| 20260904181005 | 76 | 298 | 3.0 | 12.0 | 0.00 | 0.00 | 0.00 | 58 | 1014.1 |
| 20260904180004 | 76 | 357 | 4.0 | 10.0 | 0.00 | 0.00 | 0.00 | 58 | 1014.2 |
| 20260904175214 | 77 | 336 | 5.0 | 10.0 | 0.00 | 0.00 | 0.00 | 57 | 1014.4 |
| 20260904174003 | 76 | 351 | 4.0 | 8.0 | 0.00 | 0.00 | 0.00 | 59 | 1014.3 |
| 20260904173004 | 76 | 316 | 5.0 | 13.0 | 0.00 | 0.00 | 0.00 | 58 | 1014.4 |
| 20260904172003 | 75 | 292 | 3.0 | 11.0 | 0.00 | 0.00 | 0.00 | 59 | 1014.3 |
| 20260904171003 | 75 | 302 | 4.0 | 11.0 | 0.00 | 0.00 | 0.00 | 57 | 1014.3 |
| 20260904170003 | 76 | 338 | 4.0 | 11.0 | 0.00 | 0.00 | 0.00 | 57 | 1014.5 |
| 20260904165214 | 76 | 327 | 2.0 | 10.0 | 0.00 | 0.00 | 0.00 | 58 | 1014.6 |
| 20260904164004 | 75 | 258 | 3.0 | 10.0 | 0.00 | 0.00 | 0.00 | 60 | 1014.6 |
| 20260904163216 | 74 | 275 | 3.0 | 9.0 | 0.00 | 0.00 | 0.00 | 61 | 1014.5 |
| 20260904162215 | 74 | 310 | 3.0 | 10.0 | 0.00 | 0.00 | 0.00 | 63 | 1014.6 |
| 20260904161003 | 74 | 338 | 5.0 | 9.0 | 0.00 | 0.00 | 0.00 | 62 | 1014.5 |
| 20260904160003 | 74 | 336 | 3.0 | 10.0 | 0.00 | 0.00 | 0.00 | 64 | 1014.5 |
| 20260904155003 | 74 | 316 | 3.0 | 10.0 | 0.00 | 0.00 | 0.00 | 67 | 1014.6 |
| 20260904154003 | 74 | 334 | 2.0 | 8.0 | 0.00 | 0.00 | 0.00 | 68 | 1014.4 |
| 20260904153003 | 73 | 302 | 2.0 | 6.0 | 0.00 | 0.00 | 0.00 | 70 | 1014.5 |
| 20260904152004 | 73 | 327 | 3.0 | 10.0 | 0.00 | 0.00 | 0.00 | 69 | 1014.5 |
| 20260904151005 | 73 | 314 | 3.0 | 9.0 | 0.00 | 0.00 | 0.00 | 69 | 1014.5 |
| 20260904150215 | 73 | 354 | 3.0 | 12.0 | 0.00 | 0.00 | 0.00 | 69 | 1014.5 |
| 20260904145003 | 73 | 275 | 3.0 | 10.0 | 0.00 | 0.00 | 0.00 | 71 | 1014.7 |
| 20260904144003 | 72 | 316 | 2.0 | 8.0 | 0.00 | 0.00 | 0.00 | 73 | 1014.6 |
| 20260904143215 | 72 | 284 | 3.0 | 8.0 | 0.00 | 0.00 | 0.00 | 75 | 1014.6 |
| 20260904142003 | 72 | 338 | 2.0 | 10.0 | 0.00 | 0.00 | 0.00 | 79 | 1014.7 |
| 20260904141003 | 71 | 270 | 2.0 | 5.0 | 0.00 | 0.00 | 0.00 | 79 | 1014.6 |
| 20260904135213 | 71 | 316 | 2.0 | 6.0 | 0.00 | 0.00 | 0.00 | 82 | 1014.5 |
| 20260904134003 | 71 | 249 | 2.0 | 6.0 | 0.00 | 0.00 | 0.00 | 84 | 1014.6 |
| 20260904133006 | 71 | 293 | 2.0 | 9.0 | 0.00 | 0.00 | 0.00 | 83 | 1014.8 |
| 20260904132003 | 71 | 278 | 2.0 | 9.0 | 0.00 | 0.00 | 0.00 | 84 | 1014.9 |
| 20260904131003 | 70 | 255 | 2.0 | 6.0 | 0.00 | 0.00 | 0.00 | 85 | 1014.5 |
| 20260904130003 | 70 | 267 | 3.0 | 7.0 | 0.00 | 0.00 | 0.00 | 87 | 1014.4 |
| 20260904125004 | 69 | 290 | 2.0 | 7.0 | 0.00 | 0.00 | 0.00 | 89 | 1014.4 |
| 20260904124215 | 69 | 270 | 3.0 | 9.0 | 0.00 | 0.00 | 0.00 | 90 | 1014.6 |
| 20260904123213 | 68 | 285 | 3.0 | 12.0 | 0.00 | 0.00 | 0.00 | 91 | 1014.7 |
| 20260904122004 | 68 | 247 | 3.0 | 8.0 | 0.00 | 0.00 | 0.00 | 92 | 1014.6 |
| 20260904121004 | 67 | 295 | 2.0 | 8.0 | 0.00 | 0.00 | 0.00 | 92 | 1014.5 |
| 20260904120004 | 67 | 290 | 2.0 | 6.0 | 0.00 | 0.00 | 0.00 | 92 | 1014.7 |
| 20260904115217 | 67 | 274 | 2.0 | 9.0 | 0.00 | 0.00 | 0.00 | 93 | 1014.6 |
| 20260904114004 | 67 | 255 | 2.0 | 7.0 | 0.00 | 0.00 | 0.00 | 93 | 1014.4 |
| 20260904113007 | 67 | 232 | 2.0 | 6.0 | 0.00 | 0.00 | 0.00 | 93 | 1014.4 |
| 20260904112215 | 67 | 247 | 2.0 | 6.0 | 0.00 | 0.00 | 0.00 | 93 | 1014.3 |
| 20260904111003 | 66 | 230 | 2.0 | 7.0 | 0.00 | 0.00 | 0.00 | 93 | 1014.3 |
| 20260904110214 | 67 | 242 | 2.0 | 6.0 | 0.00 | 0.00 | 0.00 | 93 | 1014.3 |
| 20260904105004 | 67 | 253 | 2.0 | 6.0 | 0.00 | 0.00 | 0.00 | 93 | 1013.9 |
| 20260904104003 | 67 | 268 | 1.0 | 6.0 | 0.00 | 0.00 | 0.00 | 93 | 1014.0 |
| 20260904103003 | 67 | 269 | 1.0 | 6.0 | 0.00 | 0.00 | 0.00 | 92 | 1014.1 |
| 20260904102212 | 67 | 242 | 2.0 | 6.0 | 0.00 | 0.00 | 0.00 | 92 | 1014.0 |
| 20260904101214 | 67 | 194 | 2.0 | 5.0 | 0.00 | 0.00 | 0.00 | 92 | 1013.7 |
| 20260904100003 | 67 | 217 | 1.0 | 4.0 | 0.00 | 0.00 | 0.00 | 91 | 1013.7 |
| 20260904095214 | 67 | 250 | 1.0 | 6.0 | 0.00 | 0.00 | 0.00 | 91 | 1013.5 |
| 20260904094004 | 67 | 200 | 1.0 | 5.0 | 0.00 | 0.00 | 0.00 | 92 | 1013.4 |
| 20260904093004 | 68 | 241 | 2.0 | 4.0 | 0.00 | 0.00 | 0.00 | 92 | 1013.4 |
| 20260904092214 | 68 | 267 | 2.0 | 6.0 | 0.00 | 0.00 | 0.00 | 93 | 1013.4 |
| 20260904091004 | 68 | 209 | 1.0 | 5.0 | 0.00 | 0.00 | 0.00 | 93 | 1013.5 |
| 20260904090004 | 68 | 233 | 2.0 | 6.0 | 0.00 | 0.00 | 0.00 | 94 | 1013.4 |
| 20260904085004 | 68 | 261 | 1.0 | 6.0 | 0.00 | 0.00 | 0.00 | 95 | 1013.2 |
| 20260904084004 | 68 | 258 | 1.0 | 4.0 | 0.00 | 0.00 | 0.00 | 95 | 1013.2 |
| 20260904083004 | 68 | 214 | 1.0 | 8.0 | 0.00 | 0.00 | 0.00 | 95 | 1013.0 |
| 20260904082004 | 68 | 252 | 2.0 | 8.0 | 0.00 | 0.00 | 0.00 | 95 | 1013.0 |
| 20260904081005 | 69 | 300 | 1.0 | 5.0 | 0.00 | 0.00 | 0.00 | 95 | 1012.9 |
| 20260904080004 | 69 | 275 | 1.0 | 5.0 | 0.00 | 0.00 | 0.00 | 95 | 1012.9 |
| 20260904075004 | 69 | 223 | 1.0 | 5.0 | 0.00 | 0.00 | 0.00 | 95 | 1012.8 |
| 20260904074215 | 69 | 259 | 1.0 | 6.0 | 0.00 | 0.00 | 0.00 | 95 | 1012.8 |
| 20260904073215 | 69 | 207 | 1.0 | 5.0 | 0.00 | 0.00 | 0.00 | 95 | 1012.6 |
| 20260904072215 | 69 | 258 | 1.0 | 5.0 | 0.00 | 0.00 | 0.00 | 95 | 1012.7 |
| 20260904071003 | 69 | 255 | 2.0 | 5.0 | 0.00 | 0.00 | 0.00 | 95 | 1012.6 |
| 20260904070213 | 69 | 245 | 2.0 | 5.0 | 0.00 | 0.00 | 0.00 | 95 | 1012.7 |
| 20260904065213 | 69 | 214 | 1.0 | 6.0 | 0.00 | 0.00 | 0.00 | 95 | 1012.6 |
| 20260904064005 | 69 | 252 | 1.0 | 4.0 | 0.00 | 0.00 | 0.00 | 95 | 1012.5 |
| 20260904063003 | 70 | 219 | 1.0 | 4.0 | 0.00 | 0.00 | 0.00 | 94 | 1012.7 |
| 20260904062213 | 70 | 250 | 2.0 | 5.0 | 0.00 | 0.00 | 0.00 | 93 | 1012.9 |
| 20260904061005 | 70 | 189 | 2.0 | 5.0 | 0.00 | 0.00 | 0.00 | 92 | 1012.9 |
| 20260904060005 | 70 | 203 | 0.0 | 5.0 | 0.00 | 0.00 | 0.00 | 91 | 1013.1 |
| 20260904055003 | 70 | 220 | 0.0 | 3.0 | 0.00 | 0.00 | 0.00 | 90 | 1013.0 |
| 20260904054003 | 70 | 203 | 1.0 | 4.0 | 0.00 | 0.00 | 0.00 | 89 | 1013.1 |
| 20260904053003 | 71 | 261 | 1.0 | 3.0 | 0.00 | 0.01 | 0.00 | 89 | 1013.1 |
| 20260904052003 | 71 | 254 | 1.0 | 4.0 | 0.00 | 0.01 | 0.00 | 89 | 1013.1 |
| 20260904051004 | 71 | 213 | 1.0 | 5.0 | 0.00 | 0.01 | 0.00 | 89 | 1013.3 |
| 20260904050006 | 71 | 245 | 1.0 | 4.0 | 0.00 | 0.01 | 0.00 | 88 | 1013.5 |
| 20260904045214 | 71 | 240 | 1.0 | 5.0 | 0.00 | 0.01 | 0.00 | 88 | 1013.3 |
| 20260904044004 | 71 | 249 | 2.0 | 5.0 | 0.00 | 0.01 | 0.00 | 88 | 1013.1 |
| 20260904043003 | 71 | 232 | 2.0 | 5.0 | 0.00 | 0.01 | 0.00 | 88 | 1013.2 |
| 20260904042004 | 71 | 249 | 1.0 | 4.0 | 0.00 | 0.01 | 0.00 | 88 | 1013.2 |
| 20260904041003 | 71 | 228 | 0.0 | 4.0 | 0.00 | 0.01 | 0.00 | 88 | 1013.1 |
| 20260904040007 | 71 | 211 | 0.0 | 2.0 | 0.00 | 0.01 | 0.00 | 89 | 1012.9 |
| 20260904035214 | 71 | 206 | 1.0 | 3.0 | 0.00 | 0.01 | 0.01 | 89 | 1012.9 |
| 20260904034003 | 71 | 188 | 0.0 | 3.0 | 0.00 | 0.01 | 0.01 | 89 | 1013.0 |
| 20260904033214 | 71 | 191 | 1.0 | 3.0 | 0.00 | 0.01 | 0.01 | 89 | 1013.1 |
| 20260904032003 | 71 | 0 | 0.0 | 2.0 | 0.00 | 0.01 | 0.01 | 88 | 1013.1 |
| 20260904031003 | 71 | 207 | 0.0 | 2.0 | 0.00 | 0.01 | 0.01 | 88 | 1013.1 |
| 20260904030214 | 71 | 0 | 0.0 | 0.0 | 0.00 | 0.01 | 0.01 | 88 | 1013.2 |
| 20260904025004 | 71 | 0 | 0.0 | 0.0 | 0.00 | 0.01 | 0.01 | 88 | 1013.2 |
| 20260904024004 | 71 | 0 | 0.0 | 0.0 | 0.00 | 0.01 | 0.01 | 88 | 1013.2 |
| 20260904023004 | 71 | 0 | 0.0 | 0.0 | 0.00 | 0.01 | 0.01 | 88 | 1013.2 |
| 20260904022005 | 71 | 0 | 0.0 | 0.0 | 0.00 | 0.01 | 0.01 | 87 | 1013.4 |
| 20260904021005 | 71 | 0 | 0.0 | 0.0 | 0.00 | 0.01 | 0.01 | 86 | 1013.1 |
| 20260904020004 | 71 | 0 | 0.0 | 0.0 | 0.00 | 0.02 | 0.01 | 85 | 1013.4 |
| 20260904015004 | 71 | 0 | 0.0 | 0.0 | 0.00 | 0.02 | 0.01 | 85 | 1013.3 |
| 20260904014004 | 72 | 0 | 0.0 | 0.0 | 0.00 | 0.05 | 0.01 | 83 | 1013.5 |
| 20260904013004 | 72 | 0 | 0.0 | 0.0 | 0.00 | 0.05 | 0.01 | 83 | 1013.3 |
| 20260904012004 | 72 | 0 | 0.0 | 0.0 | 0.00 | 0.06 | 0.01 | 82 | 1013.1 |
| 20260904011005 | 72 | 0 | 0.0 | 0.0 | 0.00 | 0.06 | 0.01 | 81 | 1013.2 |
| 20260904010004 | 73 | 0 | 0.0 | 0.0 | 0.00 | 0.06 | 0.01 | 80 | 1013.3 |
| 20260904005215 | 73 | 0 | 0.0 | 0.0 | 0.00 | 0.06 | 0.01 | 79 | 1013.2 |
| 20260904004004 | 73 | 0 | 0.0 | 0.0 | 0.00 | 0.06 | 0.01 | 78 | 1013.5 |
| 20260904003215 | 74 | 0 | 0.0 | 0.0 | 0.00 | 0.06 | 0.01 | 77 | 1013.3 |